| time (UTC) | temp F | wind direction | speed MPH | gust MPH | rain 1hr in | rain 24hr in | rain mn in | humidity % | barometer mb |
| 20260510224527 | 87 | 139 | 1.0 | 4.0 | 0.00 | 0.00 | 0.00 | 46 | 1011.4 |
| 20260510223024 | 85 | 285 | 0.0 | 4.0 | 0.00 | 0.00 | 0.00 | 49 | 1011.6 |
| 20260510221528 | 84 | 292 | 0.0 | 6.0 | 0.00 | 0.00 | 0.00 | 50 | 1011.9 |
| 20260510220024 | 84 | 303 | 0.0 | 2.0 | 0.00 | 0.00 | 0.00 | 50 | 1012.1 |
| 20260510214527 | 83 | 271 | 0.0 | 2.0 | 0.00 | 0.00 | 0.00 | 53 | 1012.3 |
| 20260510213022 | 82 | 254 | 0.0 | 6.0 | 0.00 | 0.00 | 0.00 | 53 | 1012.5 |
| 20260510211523 | 84 | 103 | 0.0 | 3.0 | 0.00 | 0.00 | 0.00 | 51 | 1012.7 |
| 20260510210021 | 83 | 342 | 0.0 | 1.0 | 0.00 | 0.00 | 0.00 | 53 | 1012.8 |
| 20260510204520 | 81 | 266 | 0.0 | 3.0 | 0.00 | 0.00 | 0.00 | 54 | 1012.9 |
| 20260510203018 | 80 | 139 | 0.0 | 5.0 | 0.00 | 0.00 | 0.00 | 55 | 1013.0 |
| 20260510201514 | 80 | 77 | 0.0 | 3.0 | 0.00 | 0.00 | 0.00 | 56 | 1013.1 |
| 20260510200015 | 79 | 131 | 0.0 | 4.0 | 0.00 | 0.00 | 0.00 | 56 | 1013.1 |
| 20260510194508 | 77 | 110 | 0.0 | 6.0 | 0.00 | 0.00 | 0.00 | 57 | 1013.3 |
| 20260510193008 | 78 | 91 | 1.0 | 4.0 | 0.00 | 0.00 | 0.00 | 56 | 1013.5 |
| 20260510191507 | 78 | 128 | 0.0 | 1.0 | 0.00 | 0.00 | 0.00 | 57 | 1013.7 |
| 20260510190012 | 75 | 291 | 0.0 | 6.0 | 0.00 | 0.00 | 0.00 | 60 | 1013.7 |
| 20260510184502 | 75 | 124 | 2.0 | 6.0 | 0.00 | 0.00 | 0.00 | 58 | 1013.8 |
| 20260510183100 | 74 | 128 | 0.0 | 6.0 | 0.00 | 0.00 | 0.00 | 59 | 1013.8 |
| 20260510181601 | 73 | 99 | 1.0 | 4.0 | 0.00 | 0.00 | 0.00 | 60 | 1013.8 |
| 20260510180117 | 71 | 108 | 3.0 | 6.0 | 0.00 | 0.00 | 0.00 | 62 | 1013.8 |
| 20260510174554 | 71 | 74 | 0.0 | 4.0 | 0.00 | 0.00 | 0.00 | 63 | 1013.8 |
| 20260510173052 | 70 | 134 | 3.0 | 8.0 | 0.00 | 0.00 | 0.00 | 63 | 1013.8 |
| 20260510171559 | 68 | 155 | 0.0 | 8.0 | 0.00 | 0.00 | 0.00 | 66 | 1013.7 |
| 20260510170048 | 67 | 80 | 4.0 | 8.0 | 0.00 | 0.00 | 0.00 | 66 | 1013.7 |
| 20260510164550 | 66 | 128 | 1.0 | 7.0 | 0.00 | 0.00 | 0.00 | 68 | 1013.7 |
| 20260510163054 | 65 | 59 | 0.0 | 7.0 | 0.00 | 0.00 | 0.00 | 70 | 1013.7 |
| 20260510161556 | 63 | 87 | 0.0 | 8.0 | 0.00 | 0.00 | 0.00 | 71 | 1013.6 |
| 20260510160053 | 62 | 89 | 2.0 | 8.0 | 0.00 | 0.00 | 0.00 | 74 | 1013.5 |
| 20260510154542 | 61 | 119 | 3.0 | 9.0 | 0.00 | 0.00 | 0.00 | 75 | 1013.6 |
| 20260510153045 | 59 | 125 | 3.0 | 6.0 | 0.00 | 0.00 | 0.00 | 76 | 1013.7 |
| 20260510151538 | 59 | 133 | 0.0 | 5.0 | 0.00 | 0.00 | 0.00 | 78 | 1013.7 |
| 20260510150039 | 58 | 108 | 2.0 | 7.0 | 0.00 | 0.00 | 0.00 | 80 | 1013.5 |
| 20260510144543 | 57 | 115 | 3.0 | 6.0 | 0.00 | 0.00 | 0.00 | 80 | 1013.5 |
| 20260510143047 | 56 | 193 | 3.0 | 8.0 | 0.00 | 0.00 | 0.00 | 80 | 1013.4 |
| 20260510141537 | 56 | 160 | 4.0 | 7.0 | 0.00 | 0.00 | 0.00 | 81 | 1013.3 |
| 20260510140031 | 56 | 160 | 1.0 | 5.0 | 0.00 | 0.00 | 0.00 | 81 | 1013.0 |
| 20260510134528 | 55 | 106 | 2.0 | 8.0 | 0.00 | 0.00 | 0.00 | 82 | 1013.0 |
| 20260510133033 | 55 | 120 | 0.0 | 6.0 | 0.00 | 0.00 | 0.00 | 82 | 1012.9 |
| 20260510131528 | 55 | 118 | 2.0 | 6.0 | 0.00 | 0.00 | 0.00 | 82 | 1012.7 |
| 20260510130020 | 55 | 110 | 0.0 | 7.0 | 0.00 | 0.00 | 0.00 | 82 | 1012.6 |
| 20260510124519 | 56 | 136 | 2.0 | 6.0 | 0.00 | 0.00 | 0.00 | 81 | 1012.4 |
| 20260510123015 | 57 | 110 | 1.0 | 7.0 | 0.00 | 0.00 | 0.00 | 81 | 1012.5 |
| 20260510121513 | 57 | 98 | 0.0 | 1.0 | 0.00 | 0.00 | 0.00 | 80 | 1012.4 |
| 20260510120012 | 57 | 143 | 0.0 | 2.0 | 0.00 | 0.00 | 0.00 | 80 | 1012.4 |
| 20260510114516 | 57 | 131 | 1.0 | 4.0 | 0.00 | 0.00 | 0.00 | 80 | 1012.3 |
| 20260510113011 | 57 | 105 | 0.0 | 3.0 | 0.00 | 0.00 | 0.00 | 80 | 1012.2 |
| 20260510111505 | 57 | 139 | 0.0 | 4.0 | 0.00 | 0.00 | 0.00 | 80 | 1012.3 |
| 20260510110005 | 58 | 123 | 0.0 | 2.0 | 0.00 | 0.00 | 0.00 | 80 | 1012.1 |
| 20260510104502 | 58 | 127 | 0.0 | 4.0 | 0.00 | 0.00 | 0.00 | 79 | 1012.2 |
| 20260510103104 | 58 | 136 | 0.0 | 3.0 | 0.00 | 0.00 | 0.00 | 79 | 1012.2 |
| 20260510101558 | 58 | 108 | 0.0 | 5.0 | 0.00 | 0.00 | 0.00 | 79 | 1012.2 |
| 20260510100056 | 58 | 134 | 0.0 | 7.0 | 0.00 | 0.00 | 0.00 | 79 | 1012.1 |
| 20260510094555 | 59 | 103 | 1.0 | 4.0 | 0.00 | 0.00 | 0.00 | 78 | 1012.0 |
| 20260510093103 | 59 | 107 | 0.0 | 4.0 | 0.00 | 0.00 | 0.00 | 77 | 1012.0 |
| 20260510091547 | 60 | 151 | 0.0 | 3.0 | 0.00 | 0.00 | 0.00 | 76 | 1011.9 |
| 20260510090049 | 61 | 138 | 0.0 | 5.0 | 0.00 | 0.00 | 0.00 | 75 | 1011.8 |
| 20260510084544 | 62 | 143 | 1.0 | 4.0 | 0.00 | 0.00 | 0.00 | 74 | 1011.7 |
| 20260510083045 | 62 | 139 | 0.0 | 2.0 | 0.00 | 0.00 | 0.00 | 73 | 1011.6 |
| 20260510081546 | 63 | 113 | 0.0 | 1.0 | 0.00 | 0.00 | 0.00 | 73 | 1011.8 |
| 20260510080034 | 63 | 110 | 0.0 | 2.0 | 0.00 | 0.00 | 0.00 | 72 | 1011.6 |
| 20260510074531 | 64 | 136 | 0.0 | 6.0 | 0.00 | 0.00 | 0.00 | 71 | 1011.5 |
| 20260510073028 | 64 | 153 | 0.0 | 0.0 | 0.00 | 0.00 | 0.00 | 70 | 1011.9 |
| 20260510071526 | 65 | 122 | 0.0 | 3.0 | 0.00 | 0.00 | 0.00 | 70 | 1011.9 |
| 20260510070026 | 65 | 85 | 0.0 | 5.0 | 0.00 | 0.00 | 0.00 | 70 | 1011.9 |
| 20260510064534 | 65 | 141 | 0.0 | 5.0 | 0.00 | 0.00 | 0.00 | 71 | 1011.8 |
| 20260510063036 | 65 | 119 | 0.0 | 3.0 | 0.00 | 0.00 | 0.00 | 71 | 1011.8 |
| 20260510061530 | 66 | 121 | 1.0 | 7.0 | 0.00 | 0.00 | 0.00 | 72 | 1011.9 |
| 20260510060038 | 66 | 67 | 0.0 | 4.0 | 0.00 | 0.00 | 0.00 | 72 | 1011.8 |
| 20260510054524 | 67 | 135 | 2.0 | 5.0 | 0.00 | 0.00 | 0.00 | 71 | 1011.8 |
| 20260510053036 | 68 | 129 | 0.0 | 7.0 | 0.00 | 0.00 | 0.00 | 70 | 1011.7 |
| 20260510051524 | 69 | 106 | 0.0 | 6.0 | 0.00 | 0.00 | 0.00 | 70 | 1011.5 |
| 20260510050019 | 71 | 122 | 2.0 | 6.0 | 0.00 | 0.00 | 0.00 | 69 | 1011.4 |
| 20260510044539 | 71 | 131 | 0.0 | 4.0 | 0.00 | 0.00 | 0.00 | 68 | 1011.3 |
| 20260510043019 | 72 | 141 | 0.0 | 4.0 | 0.00 | 0.00 | 0.00 | 69 | 1011.2 |
| 20260510041518 | 73 | 129 | 0.0 | 1.0 | 0.00 | 0.00 | 0.00 | 67 | 1011.1 |
| 20260510040031 | 74 | 124 | 1.0 | 5.0 | 0.00 | 0.00 | 0.00 | 66 | 1011.0 |
| 20260510034517 | 75 | 133 | 0.0 | 5.0 | 0.00 | 0.00 | 0.00 | 65 | 1010.8 |
| 20260510033017 | 76 | 106 | 0.0 | 2.0 | 0.00 | 0.00 | 0.00 | 64 | 1010.6 |
| 20260510031517 | 77 | 94 | 0.0 | 5.0 | 0.00 | 0.00 | 0.00 | 61 | 1010.5 |
| 20260510030016 | 79 | 120 | 0.0 | 4.0 | 0.00 | 0.00 | 0.00 | 60 | 1010.3 |
| 20260510024515 | 81 | 144 | 0.0 | 5.0 | 0.00 | 0.00 | 0.00 | 58 | 1010.2 |
| 20260510023014 | 82 | 160 | 0.0 | 4.0 | 0.00 | 0.00 | 0.00 | 55 | 1010.1 |
| 20260510021514 | 83 | 98 | 1.0 | 10.0 | 0.00 | 0.00 | 0.00 | 53 | 1010.1 |
| 20260510020019 | 84 | 79 | 1.0 | 6.0 | 0.00 | 0.00 | 0.00 | 50 | 1010.1 |
| 20260510014511 | 86 | 123 | 0.0 | 5.0 | 0.00 | 0.00 | 0.00 | 49 | 1010.0 |
| 20260510013011 | 88 | 141 | 1.0 | 4.0 | 0.00 | 0.00 | 0.00 | 44 | 1009.9 |
| 20260510011514 | 89 | 150 | 0.0 | 1.0 | 0.00 | 0.00 | 0.00 | 38 | 1010.0 |
| 20260510010008 | 89 | 82 | 0.0 | 2.0 | 0.00 | 0.00 | 0.00 | 39 | 1009.9 |
| 20260510004508 | 90 | 141 | 0.0 | 2.0 | 0.00 | 0.00 | 0.00 | 37 | 1010.1 |
| 20260510003005 | 89 | 110 | 0.0 | 1.0 | 0.00 | 0.00 | 0.00 | 40 | 1010.1 |
| 20260510001504 | 90 | 168 | 0.0 | 1.0 | 0.00 | 0.00 | 0.00 | 40 | 1010.2 |
| 20260510000001 | 90 | 150 | 0.0 | 1.0 | 0.00 | 0.00 | 0.00 | 41 | 1010.4 |
| 20260509234601 | 89 | 123 | 0.0 | 5.0 | 0.00 | 0.00 | 0.00 | 42 | 1010.5 |
| 20260509233103 | 89 | 67 | 0.0 | 1.0 | 0.00 | 0.00 | 0.00 | 42 | 1010.6 |
| 20260509231555 | 87 | 110 | 1.0 | 6.0 | 0.00 | 0.00 | 0.00 | 43 | 1010.6 |
| 20260509230051 | 88 | 82 | 0.0 | 5.0 | 0.00 | 0.00 | 0.00 | 44 | 1010.8 |